Regional Weather Roundup
Issued by NWS Cleveland, OH

Home | Current Version | Previous Version | Text Only | Print | Product List | Glossary Off
Versions: 1 2 3 4 5 6 7 8 9 10 11 12 13 14 15 16 17 18 19 20 21 22 23 24 25 26 27 28 29 30 31 32 33 34 35 36 37 38 39 40 41 42 43 44 45 46 47 48 49 50

000
ASUS41 KCLE 270402
RWRCLE
OHIO REGIONAL WEATHER ROUNDUP
NATIONAL WEATHER SERVICE CLEVELAND, OH
1100 PM EST FRI DEC 26 2014

NOTE: "FAIR" INDICATES FEW OR NO CLOUDS BELOW 12,000 FEET WITH NO
SIGNIFICANT WEATHER AND/OR OBSTRUCTIONS TO VISIBILITY.

OHZ001>008-015>018-024>027-034-035-043-044-270500-
   NORTHWEST OHIO

CITY           SKY/WX    TMP DP  RH WIND       PRES   REMARKS
DEFIANCE       CLOUDY    44  38  79 S8        30.13R
FINDLAY        MOCLDY    37  33  85 S9        30.14R
TOLEDO EXPRESS PTCLDY    38  35  89 S6        30.12S
TOLEDO EXEC    PTCLDY    41  35  79 S9        30.13F
LIMA           CLOUDY    44  34  67 S9        30.14R
$$

OHZ009>014-019>023-028>033-038-089-270500-
   NORTHEAST OHIO

CITY           SKY/WX    TMP DP  RH WIND       PRES   REMARKS
CLE-HOPKINS    CLOUDY    43  34  70 S13       30.18F
CLE-LAKEFRONT  CLOUDY    46  34  62 S15G24    30.15S
CUY CO. ARPT   CLOUDY    46  36  66 SW12      30.16F
LORAIN-ELYRIA  CLOUDY    40  35  83 S10       30.16S
ASHTABULA      PTCLDY    41  33  73 S9        30.16F
AKRON-CANTON   MOCLDY    39  32  76 SW8       30.18S
WOOSTER        MOCLDY    39  33  79 S5        30.18R
MANSFIELD      MOCLDY    41  34  76 S10       30.16S
YOUNGSTOWN     CLOUDY    41  32  70 S6        30.17F
$$

OHZ042-051>053-060>062-070>072-077>081-270500-
  SOUTHWEST OHIO

CITY           SKY/WX    TMP DP  RH WIND       PRES   REMARKS
CINC-COVINGTON MOCLDY    45  32  60 S7        30.18R
CINC-LUNKEN    PTCLDY    37  35  92 CALM      30.19S
HAMILTON       PTCLDY    40  33  76 SE3       30.18S
DAYTON         CLOUDY    45  35  68 S8        30.17R
WRIGHT-PAT AFB CLOUDY    41  35  77 S6        30.17R
DAYTON GENERAL MOCLDY    41  34  76 S8        30.16S
WILMINGTON     PTCLDY    41  33  73 S5        30.18R
$$

OHZ036-037-039>041-045>050-054>059-063>069-073>076-082>088-270500-
  CENTRAL AND SOUTHEAST OHIO

CITY           SKY/WX    TMP DP  RH WIND       PRES   REMARKS
COLUMBUS       MOCLDY    40  33  76 CALM      30.19R
OSU AIRPORT    PTCLDY    40  34  79 S5        30.18R
BOLTON FIELD   NOT AVBL
RICKENBACK AFB MOCLDY    40  33  77 S3        30.19R
NEWARK         MOCLDY    33  31  92 CALM      30.19R
MARION         MOCLDY    38  33  82 S8        30.17S
LANCASTER      MOCLDY    36  32  85 S5        30.20R
ZANESVILLE     MOCLDY    37  31  78 E3        30.20S
NEW PHILLY     CLOUDY    40  33  76 SE5       30.20S
$$


USA.gov is the U.S. government's official web portal to all federal, state and local government web resources and services.